Location: Bijele Vode
(45.2833°N, 16.2000°E)
Time: 23:36:54
(UTC+00:00)

Lacrosse 5 rocket - Pass Details

Date: 21 January 2021
Orbit: 465 x 630 km, 57.0° (Epoch: 06 March)

Event Time Altitude Azimuth Distance (km) Brightness Sun altitude
Exits shadow 05:11:34 20° 308° (NW) 1,241 2.6 -13.1°
Maximum altitude 05:14:13 81° 224° (SW) 509 1.0 -12.7°
Drops below altitude 10° 05:17:56 10° 136° (SE) 1,656 4.8 -12.0°
Sets 05:20:02 0° 135° (SE) 2,515 5.9 -11.7°
